DW3546 Weather Reports


time (UTC)temp
C
wind
direction
speed
KPH
gust
KPH
rain 1hr
cm
rain 24hr
cm
rain mn
cm
humidity
%
barometer
mb
20260505200515 10 0.0 3.2 0.00 0.00 0.00 90 1016.7
20260505195515 10 0.0 0.0 0.00 0.00 0.00 90 1016.5
20260505194515 10 0.0 3.2 0.00 0.00 0.00 89 1016.6
20260505193606 10 0.0 3.2 0.00 0.00 0.00 89 1016.7
20260505192516 10 0.0 4.8 0.00 0.00 0.00 89 1016.6
20260505191515 10 0.0 3.2 0.00 0.00 0.00 89 1016.4
20260505190515 10 270 1.6 4.8 0.00 0.00 0.00 89 1016.4
20260505185515 9 293 1.6 6.4 0.00 0.00 0.00 89 1016.4
20260505184515 9 0.0 3.2 0.00 0.00 0.00 89 1016.3
20260505183515 9 270 1.6 4.8 0.00 0.00 0.00 89 1016.3
20260505182517 9 0.0 4.8 0.00 0.00 0.00 88 1016.4
20260505181517 9 0.0 3.2 0.00 0.00 0.00 87 1016.3
20260505180517 9 0.0 0.0 0.00 0.00 0.00 87 1016.2
20260505175517 9 315 1.6 3.2 0.00 0.00 0.00 86 1016.1
20260505174517 9 315 1.6 6.4 0.00 0.00 0.00 86 1016.0
20260505173536 9 0.0 3.2 0.00 0.00 0.00 87 1015.9
20260505172517 9 0.0 4.8 0.00 0.00 0.00 87 1015.8
20260505171517 9 270 1.6 6.4 0.00 0.00 0.00 85 1015.8
20260505170517 9 293 1.6 6.4 0.00 0.00 0.00 85 1015.8
20260505165517 9 270 1.6 6.4 0.00 0.00 0.00 85 1015.8
20260505164517 9 293 1.6 6.4 0.00 0.00 0.00 86 1015.8
20260505163517 9 0.0 3.2 0.00 0.00 0.00 86 1015.6
20260505162538 8 270 1.6 6.4 0.00 0.00 0.00 86 1015.5
20260505161517 8 248 3.2 8.0 0.00 0.00 0.00 88 1015.6
20260505160536 8 270 4.8 8.0 0.00 0.00 0.00 88 1015.6
20260505152516 7 270 3.2 9.7 0.00 0.00 0.00 91 1015.2
20260505151517 7 0.0 3.2 0.00 0.03 0.00 92 1015.1
20260505150517 7 0.0 1.6 0.00 0.03 0.00 92 1015.1
20260505140516 7 270 4.8 9.7 0.00 0.03 0.00 92 1014.8
20260505124017 7 0.0 0.0 0.00 0.03 0.00 91 1014.7
20260505123016 7 0.0 0.0 0.00 0.03 0.00 90 1014.7
20260505122017 7 0.0 0.0 0.00 0.03 0.00 90 1014.6
20260505121016 7 0.0 0.0 0.00 0.03 0.00 89 1014.7
20260505120016 7 0.0 3.2 0.00 0.03 0.00 89 1014.8
20260505115037 7 0.0 1.6 0.00 0.03 0.00 89 1014.9
20260505114017 7 0.0 1.6 0.00 0.03 0.00 89 1014.9
20260505113036 7 270 1.6 6.4 0.00 0.03 0.00 89 1014.9
20260505112056 6 293 1.6 6.4 0.00 0.03 0.00 89 1014.8
20260505111016 6 248 1.6 4.8 0.00 0.03 0.00 90 1014.7
20260505102056 7 270 1.6 4.8 0.00 0.03 0.00 93 1014.8
20260505101016 7 0.0 1.6 0.00 0.03 0.00 93 1015.0
20260505100036 7 0.0 3.2 0.00 0.03 0.00 93 1015.1
20260505095057 7 0.0 0.0 0.00 0.03 0.00 94 1015.2
20260505094016 7 0.0 0.0 0.00 0.03 0.00 94 1015.3
20260505093016 7 0.0 0.0 0.00 0.03 0.00 93 1015.0
20260505092017 7 0.0 0.0 0.00 0.03 0.00 93 1014.8
20260505091036 7 0.0 0.0 0.00 0.03 0.00 93 1015.1
20260505090016 7 0.0 0.0 0.00 0.03 0.00 93 1015.3
20260505085016 7 270 1.6 6.4 0.00 0.03 0.00 93 1015.2
20260505084536 7 0.0 3.2 0.00 0.03 0.00 93 1015.4
20260505083517 7 0.0 0.0 0.00 0.03 0.00 92 1015.5
20260505082516 7 0.0 3.2 0.00 0.03 0.00 92 1015.4
20260505081516 7 0.0 1.6 0.00 0.03 0.00 92 1015.7
20260505080516 7 0.0 0.0 0.00 0.03 0.00 92 1015.8
20260505075516 7 0.0 3.2 0.00 0.03 0.00 92 1015.8
20260505074537 7 0.0 0.0 0.00 0.03 0.00 92 1015.8
20260505073516 7 0.0 0.0 0.00 0.03 0.00 92 1015.7
20260505072516 7 0.0 0.0 0.00 0.03 0.00 92 1015.5
20260505071516 7 0.0 0.0 0.00 0.03 0.00 91 1015.5
20260505070516 7 0.0 0.0 0.00 0.03 0.00 91 1015.3
20260505065557 7 0.0 0.0 0.00 0.03 0.03 91 1015.3
20260505064517 7 0.0 0.0 0.00 0.03 0.03 91 1015.4
20260505063516 7 0.0 0.0 0.00 0.03 0.03 91 1015.3
20260505062516 7 0.0 0.0 0.00 0.03 0.03 91 1015.1
20260505061518 7 0.0 0.0 0.00 0.03 0.03 91 1015.2
20260505060517 7 0.0 0.0 0.00 0.03 0.03 91 1015.1
20260505055517 7 0.0 0.0 0.00 0.03 0.03 92 1015.4
20260505054517 7 0.0 0.0 0.00 0.03 0.03 91 1015.4
20260505053516 7 0.0 0.0 0.00 0.03 0.03 91 1015.5
20260505052516 8 0.0 3.2 0.00 0.03 0.03 90 1015.7
20260505051516 8 0.0 3.2 0.00 0.03 0.03 89 1015.8
20260505050516 8 0.0 0.0 0.00 0.03 0.03 88 1015.9
20260505041515 8 0.0 1.6 0.00 0.03 0.03 83 1015.4
20260505040536 8 0.0 4.8 0.00 0.03 0.03 83 1015.3
20260505035517 8 0.0 0.0 0.00 0.03 0.03 84 1015.2
20260505034536 8 0.0 1.6 0.00 0.03 0.03 86 1015.0
20260505033517 8 248 1.6 4.8 0.00 0.03 0.03 87 1014.8
20260505032517 9 0.0 0.0 0.00 0.03 0.03 89 1014.5
20260505031516 9 0.0 4.8 0.00 0.03 0.03 88 1014.6
20260505030516 9 0.0 0.0 0.00 0.03 0.03 88 1014.8
20260505025516 9 0.0 1.6 0.00 0.03 0.03 88 1014.6
20260505024516 9 248 1.6 6.4 0.00 0.03 0.03 88 1014.5
20260505023516 9 0.0 3.2 0.00 0.03 0.03 88 1014.6
20260505022516 9 0.0 3.2 0.00 0.03 0.03 87 1014.5
20260505021516 10 0.0 3.2 0.00 0.03 0.03 86 1014.7
20260505020516 10 68 1.6 6.4 0.00 0.03 0.03 84 1014.4
20260505015516 10 0.0 3.2 0.00 0.03 0.03 83 1014.7
20260505014516 11 0.0 0.0 0.00 0.03 0.03 82 1014.8
20260505013516 11 0.0 0.0 0.00 0.03 0.03 81 1014.8
20260505012516 11 0.0 1.6 0.00 0.03 0.03 80 1014.9
20260505011517 11 0.0 4.8 0.00 0.03 0.03 79 1014.9
20260505010516 11 0.0 4.8 0.00 0.03 0.03 79 1015.0
20260505005516 11 0.0 3.2 0.00 0.03 0.03 79 1015.0
20260505004536 12 0.0 0.0 0.00 0.03 0.03 78 1015.3
20260505003516 12 0.0 3.2 0.00 0.03 0.03 78 1015.3
20260505002516 12 315 1.6 4.8 0.00 0.03 0.03 78 1015.3
20260505001556 11 248 4.8 9.7 0.00 0.03 0.03 78 1015.0
20260505000536 11 315 1.6 9.7 0.00 0.03 0.03 81 1015.2
20260504235516 11 0.0 1.6 0.00 0.03 0.03 80 1015.2
20260504234516 11 0 1.6 4.8 0.00 0.03 0.03 79 1015.2
20260504233516 12 293 1.6 6.4 0.00 0.03 0.03 79 1015.1
20260504232516 11 270 1.6 6.4 0.00 0.03 0.03 79 1015.1
20260504231516 11 248 3.2 9.7 0.00 0.03 0.03 79 1015.2
20260504230516 11 180 1.6 4.8 0.00 0.03 0.03 79 1015.3
20260504225516 11 180 1.6 9.7 0.00 0.03 0.03 79 1015.3
20260504224536 11 180 3.2 9.7 0.00 0.03 0.03 77 1015.2
20260504223516 12 0.0 1.6 0.00 0.03 0.03 77 1015.3
20260504222521 12 203 1.6 8.0 0.00 0.03 0.03 77 1015.4
20260504221536 12 203 4.8 11.3 0.00 0.03 0.03 75 1015.3
20260504220536 12 203 1.6 6.4 0.00 0.03 0.03 73 1015.5
20260504215536 12 0.0 6.4 0.00 0.03 0.03 73 1015.7
20260504214518 12 270 3.2 11.3 0.00 0.03 0.03 74 1015.7
20260504213516 12 270 3.2 12.9 0.00 0.03 0.03 77 1015.8
20260504212516 11 248 8.0 16.1 0.00 0.03 0.03 81 1015.7
20260504211516 10 248 9.7 14.5 0.00 0.03 0.03 84 1015.7
20260504210516 10 270 4.8 11.3 0.00 0.03 0.03 84 1015.8
20260504205516 10 293 1.6 6.4 0.00 0.03 0.03 84 1015.8
20260504204516 10 293 1.6 8.0 0.00 0.03 0.03 83 1015.8
20260504203516 11 0.0 3.2 0.00 0.03 0.03 83 1015.8
20260504202515 11 293 1.6 8.0 0.00 0.03 0.03 81 1015.6
20260504201515 11 248 1.6 3.2 0.00 0.03 0.03 78 1015.9